GW1172 Weather Reports


time (UTC)temp
F
wind
direction
speed
knots
gust
knots
rain 1hr
in
rain 24hr
in
rain mn
in
humidity
%
barometer
mb
20260510130038 64 0 0.0 1.7 0.00 0.00 0.00 87 1016.4
20260510124543 63 213 0.0 0.0 0.00 0.00 0.00 92 1016.3
20260510123056 62 0 0.0 0.0 0.00 0.00 0.00 92 1015.8
20260510121537 62 0 0.0 0.0 0.00 0.00 0.00 91 1015.8
20260510120039 61 0 0.0 0.0 0.00 0.00 0.00 91 1015.9
20260510114537 61 0 0.0 0.0 0.00 0.00 0.00 89 1015.7
20260510113045 61 0 0.0 0.0 0.00 0.00 0.00 88 1015.7
20260510111543 62 0 0.0 0.0 0.00 0.00 0.00 87 1015.4
20260510110039 62 0 0.0 0.0 0.00 0.00 0.00 87 1015.0
20260510104544 62 0 0.0 0.0 0.00 0.00 0.00 87 1015.3
20260510103046 62 0 0.0 0.0 0.00 0.00 0.00 87 1015.3
20260510101543 62 0 0.0 0.0 0.00 0.00 0.00 86 1014.8
20260510100043 62 0 0.0 0.0 0.00 0.00 0.00 87 1014.7
20260510094541 62 0 0.0 0.0 0.00 0.00 0.00 85 1014.3
20260510093047 62 0 0.0 0.0 0.00 0.00 0.00 84 1014.1
20260510091539 62 0 0.0 0.0 0.00 0.00 0.00 84 1013.9
20260510090048 62 0 0.0 0.0 0.00 0.00 0.00 85 1013.8
20260510084546 61 0 0.0 0.0 0.00 0.00 0.00 84 1014.2
20260510083042 61 0 0.0 0.0 0.00 0.00 0.00 87 1013.8
20260510081544 61 0 0.0 0.0 0.00 0.00 0.00 88 1013.5
20260510080050 61 0 0.0 0.0 0.00 0.00 0.00 88 1013.4
20260510074549 61 0 0.0 0.0 0.00 0.00 0.00 87 1013.6
20260510073051 61 0 0.0 0.0 0.00 0.00 0.00 87 1013.5
20260510071553 61 0 0.0 0.0 0.00 0.00 0.00 86 1013.5
20260510070045 61 0 0.0 0.0 0.00 0.00 0.00 84 1013.5
20260510064550 61 0 0.0 0.0 0.00 0.00 0.00 83 1013.7
20260510063043 61 0 0.0 0.0 0.00 0.00 0.00 82 1013.8
20260510061550 61 0 0.0 0.0 0.00 0.00 0.00 80 1013.9
20260510060039 62 0 0.0 0.0 0.00 0.00 0.00 79 1013.9
20260510054544 62 0 0.0 0.0 0.00 0.00 0.00 79 1013.8
20260510053042 62 0 0.0 0.0 0.00 0.00 0.00 78 1013.8
20260510051544 62 0 0.0 0.0 0.00 0.00 0.00 75 1013.8
20260510050049 63 0 0.0 0.0 0.00 0.00 0.00 73 1013.8
20260510044610 63 0 0.0 0.0 0.00 0.00 0.00 74 1013.7
20260510043038 64 0 0.0 0.0 0.00 0.00 0.00 73 1013.6
20260510041537 64 0 0.0 0.0 0.00 0.00 0.00 72 1013.7
20260510040050 65 0 0.0 0.0 0.00 0.00 0.00 70 1013.3
20260510034543 66 0 0.0 0.0 0.00 0.00 0.00 69 1013.1
20260510033042 67 0 0.0 0.0 0.00 0.00 0.00 69 1012.9
20260510031550 67 0 0.0 0.0 0.00 0.00 0.00 69 1012.8
20260510030044 67 0 0.0 0.0 0.00 0.00 0.00 69 1012.8
20260510024548 67 0 0.0 0.0 0.00 0.00 0.00 67 1012.3
20260510023042 68 0 0.0 0.0 0.00 0.00 0.00 67 1012.1
20260510021540 69 0 0.0 0.0 0.00 0.00 0.00 66 1011.6
20260510020038 69 0 0.0 0.0 0.00 0.00 0.00 63 1011.3
20260510014540 70 0 0.0 0.0 0.00 0.00 0.00 62 1011.1
20260510013044 70 0 0.0 0.0 0.00 0.00 0.00 63 1010.9
20260510011546 71 0 0.0 0.0 0.00 0.00 0.00 60 1010.7
20260510010048 72 0 0.0 0.0 0.00 0.00 0.00 59 1010.7
20260510004542 74 0 0.0 0.0 0.00 0.00 0.00 58 1010.6
20260510003041 75 0 0.0 0.0 0.00 0.00 0.00 55 1010.4
20260510001552 78 0 0.0 0.0 0.00 0.00 0.00 51 1010.4
20260510000040 81 0 0.0 0.0 0.00 0.00 0.00 46 1010.4
20260509234542 83 0 0.0 0.0 0.00 0.00 0.00 43 1010.3
20260509233051 83 0 0.0 0.9 0.00 0.00 0.00 44 1010.4
20260509231549 83 0 0.9 3.5 0.00 0.00 0.00 38 1010.4
20260509230043 84 0 0.0 2.6 0.00 0.00 0.00 41 1010.4
20260509224557 84 0 0.0 1.7 0.00 0.00 0.00 41 1010.3
20260509223048 84 0 0.0 3.5 0.00 0.00 0.00 38 1010.3
20260509221547 84 0 0.0 6.1 0.00 0.00 0.00 40 1010.3
20260509220039 85 0 0.0 2.6 0.00 0.00 0.00 42 1010.4
20260509214537 84 0 0.0 7.0 0.00 0.00 0.00 40 1010.4
20260509213043 84 252 0.9 7.0 0.00 0.00 0.00 38 1010.5
20260509211546 85 0 0.0 5.2 0.00 0.00 0.00 38 1010.5
20260509210049 85 205 0.9 6.1 0.00 0.00 0.00 46 1010.7
20260509204547 84 190 0.0 7.8 0.00 0.00 0.00 44 1010.6
20260509203043 84 259 1.7 6.1 0.00 0.00 0.00 39 1010.8
20260509201554 83 0 1.7 7.8 0.00 0.00 0.00 42 1010.9
20260509200050 84 0 0.0 6.1 0.00 0.00 0.00 42 1011.1
20260509194545 83 229 3.5 8.7 0.00 0.00 0.00 47 1011.4
20260509193045 83 209 0.9 6.1 0.00 0.00 0.00 43 1011.4
20260509191537 83 292 0.0 6.1 0.00 0.00 0.00 43 1011.5
20260509190043 82 0 0.0 2.6 0.00 0.00 0.00 41 1011.6
20260509184539 82 107 0.0 2.6 0.00 0.00 0.00 39 1011.6
20260509183040 81 0 0.0 2.6 0.00 0.00 0.00 45 1011.6
20260509181539 80 0 0.0 6.1 0.00 0.00 0.00 49 1011.6
20260509180047 80 0 0.0 2.6 0.00 0.00 0.00 51 1011.8
20260509174540 80 240 0.0 2.6 0.00 0.00 0.00 56 1011.9
20260509173039 79 0 0.9 5.2 0.00 0.00 0.00 57 1012.0
20260509171543 77 0 1.7 6.1 0.00 0.00 0.00 59 1012.1
20260509170044 77 0 0.0 4.3 0.00 0.00 0.00 60 1012.2
20260509164550 76 0 0.0 3.5 0.00 0.00 0.00 65 1012.3
20260509163039 74 0 0.0 5.2 0.00 0.00 0.00 64 1012.3
20260509161556 74 271 0.9 6.1 0.00 0.00 0.00 70 1012.3
20260509160039 73 0 0.0 3.5 0.00 0.00 0.00 72 1012.3
20260509154550 72 215 0.0 3.5 0.00 0.00 0.00 74 1012.3
20260509153047 70 0 0.0 2.6 0.00 0.00 0.00 77 1012.1
20260509151539 69 202 0.0 3.5 0.00 0.00 0.00 79 1012.2
20260509150048 67 0 0.0 1.7 0.00 0.00 0.00 80 1012.0
20260509144547 66 285 0.0 2.6 0.00 0.00 0.00 82 1012.1
20260509143048 65 0 0.0 0.9 0.00 0.00 0.00 83 1012.2
20260509141544 64 0 0.0 0.9 0.00 0.00 0.00 85 1012.1
20260509140051 63 0 0.0 2.6 0.00 0.00 0.00 87 1011.9
20260509134557 62 0 0.0 4.3 0.00 0.00 0.00 88 1011.8
20260509133047 61 236 0.9 5.2 0.00 0.00 0.00 89 1011.8
20260509131550 60 0 0.0 3.5 0.00 0.00 0.00 93 1011.7